IRIDIUM 153 (43078 NORAD) Tracking and Keplerian Element Data

This shows tracking and keplerian element data for the satellite.

Feedback or suggestion? Click here.




ElementValue
Catalog43078
NameIRIDIUM 153
Epoch Orbit19797
Epoch Day268.779017
Epoch Year2021
RAAN291.4861
Inclination86.3923
Eccentricity0.0001628
Argument of Perigee78.5304
Mean Anonmoly281.6074
Mean Motion14.34218169
Decay Rate1.12E-06
L11 43078U 17083J 21268.77901700 .00000112 00000-0 32940-4 0 9997
L22 43078 86.3923 291.4861 0001628 78.5304 281.6074 14.34218169197970

Live tracking and technical data element details for IRIDIUM 153 (NORAD 43078). IRIDIUM 153 can be tracked NOW for your location showing map with azimuth and elevation plus other details from your city location.

Track the satellite on the map from your city or location and see movement details for azimuth, elevation, latitude, longitude, range, height, and movement on the map or in text.







IsCatalogInMostPopularTable: catalog: 43078, numindb: 609
Update: records affected: 1



GetName: 43078 IRIDIUM 153

Hit Count: updated at: Mon, 27 Sep 2021 01:24:29 GMT